Time,TemperatureF,DewpointF,PressureIn,WindDirection,WindDirectionDegrees,WindSpeedMPH,WindSpeedGustMPH,Humidity,HourlyPrecipIn,Conditions,Clouds,dailyrainin,SoftwareType,DateUTC
2013-04-23 00:03:00,34.7,26.6,30.29,South,180,0.0,0.0,72,0.00,,CLR,0.00,VWS V13.01,2013-04-23 07:03:00,
2013-04-23 00:08:00,34.7,27.0,30.29,SSW,205,0.0,5.4,73,0.00,,CLR,0.00,VWS V13.01,2013-04-23 07:08:00,
2013-04-23 00:13:00,34.6,26.8,30.29,SSE,162,0.0,5.4,73,0.00,,CLR,0.00,VWS V13.01,2013-04-23 07:13:00,
2013-04-23 00:18:00,34.6,27.1,30.29,SSE,149,0.0,6.3,74,0.00,,CLR,0.00,VWS V13.01,2013-04-23 07:18:00,
2013-04-23 00:23:00,34.6,27.1,30.29,SSE,166,0.0,6.3,74,0.00,,CLR,0.00,VWS V13.01,2013-04-23 07:23:00,
2013-04-23 00:29:00,34.4,27.0,30.29,South,189,0.0,6.3,74,0.00,,CLR,0.00,VWS V13.01,2013-04-23 07:29:00,
2013-04-23 00:34:00,34.2,26.8,30.26,SSE,148,0.0,6.3,74,0.00,,CLR,0.00,VWS V13.01,2013-04-23 07:34:00,
2013-04-23 00:39:00,34.2,26.8,30.26,SSE,155,0.0,6.3,74,0.00,,CLR,0.00,VWS V13.01,2013-04-23 07:39:00,
2013-04-23 00:44:00,34.0,26.6,30.26,South,175,0.0,0.0,74,0.00,,CLR,0.00,VWS V13.01,2013-04-23 07:44:00,
2013-04-23 00:49:00,34.0,26.6,30.29,SSE,154,0.0,0.0,74,0.00,,CLR,0.00,VWS V13.01,2013-04-23 07:49:00,
2013-04-23 00:54:00,34.0,27.0,30.29,SSW,202,0.0,6.3,75,0.00,,CLR,0.00,VWS V13.01,2013-04-23 07:54:00,
2013-04-23 00:59:00,34.0,27.0,30.29,SSW,192,0.0,6.3,75,0.00,,CLR,0.00,VWS V13.01,2013-04-23 07:59:00,
2013-04-23 01:04:00,33.8,26.8,30.29,SSE,164,0.0,0.0,75,0.00,,CLR,0.00,VWS V13.01,2013-04-23 08:04:00,
2013-04-23 01:09:00,33.7,26.6,30.29,ESE,106,0.0,0.0,75,0.00,,CLR,0.00,VWS V13.01,2013-04-23 08:09:00,
2013-04-23 01:15:00,33.5,26.4,30.29,SE,124,0.0,0.0,75,0.00,,CLR,0.00,VWS V13.01,2013-04-23 08:15:00,
2013-04-23 01:20:00,33.5,26.8,30.29,SSE,152,0.0,0.0,76,0.00,,CLR,0.00,VWS V13.01,2013-04-23 08:20:00,
2013-04-23 01:25:00,33.5,26.8,30.29,ESE,122,0.0,0.0,76,0.00,,CLR,0.00,VWS V13.01,2013-04-23 08:25:00,
2013-04-23 01:30:00,33.1,26.4,30.29,SE,130,0.0,0.0,76,0.00,,CLR,0.00,VWS V13.01,2013-04-23 08:30:00,
2013-04-23 01:35:00,33.1,26.7,30.29,SE,136,0.0,0.0,77,0.00,,CLR,0.00,VWS V13.01,2013-04-23 08:35:00,
2013-04-23 01:40:00,33.0,26.5,30.29,SSE,161,0.0,0.0,77,0.00,,CLR,0.00,VWS V13.01,2013-04-23 08:40:00,
2013-04-23 01:45:00,33.0,26.9,30.29,SSE,154,0.0,0.0,78,0.00,,CLR,0.00,VWS V13.01,2013-04-23 08:45:00,
2013-04-23 01:50:00,33.0,26.9,30.29,ESE,104,0.0,0.0,78,0.00,,CLR,0.00,VWS V13.01,2013-04-23 08:50:00,
2013-04-23 01:55:00,32.8,26.7,30.29,SE,143,0.0,0.0,78,0.00,,CLR,0.00,VWS V13.01,2013-04-23 08:55:00,
2013-04-23 02:01:00,32.8,27.0,30.29,SSE,156,0.0,0.0,79,0.00,,CLR,0.00,VWS V13.01,2013-04-23 09:01:00,
2013-04-23 02:06:00,32.8,27.0,30.29,SSE,164,0.0,0.0,79,0.00,,CLR,0.00,VWS V13.01,2013-04-23 09:06:00,
2013-04-23 02:11:00,32.6,26.8,30.29,SSE,165,0.0,0.0,79,0.00,,CLR,0.00,VWS V13.01,2013-04-23 09:11:00,
2013-04-23 02:16:00,32.4,26.6,30.29,ESE,122,0.0,0.0,79,0.00,,CLR,0.00,VWS V13.01,2013-04-23 09:16:00,
2013-04-23 02:21:00,32.4,26.6,30.29,SSE,159,0.0,0.0,79,0.00,,CLR,0.00,VWS V13.01,2013-04-23 09:21:00,
2013-04-23 02:26:00,32.4,26.6,30.29,SSE,168,0.0,0.0,79,0.00,,CLR,0.00,VWS V13.01,2013-04-23 09:26:00,
2013-04-23 02:31:00,32.4,27.0,30.29,South,183,0.0,0.0,80,0.00,,CLR,0.00,VWS V13.01,2013-04-23 09:31:00,
2013-04-23 02:36:00,32.6,27.1,30.26,South,173,0.0,0.0,80,0.00,,CLR,0.00,VWS V13.01,2013-04-23 09:36:00,
2013-04-23 02:41:00,32.8,27.3,30.26,SSE,162,0.0,0.0,80,0.00,,CLR,0.00,VWS V13.01,2013-04-23 09:41:00,
2013-04-23 02:47:00,33.0,27.5,30.26,East,92,5.4,6.3,80,0.00,,CLR,0.00,VWS V13.01,2013-04-23 09:47:00,
2013-04-23 02:52:00,33.0,27.5,30.26,SE,136,0.0,6.3,80,0.00,,CLR,0.00,VWS V13.01,2013-04-23 09:52:00,
2013-04-23 02:57:00,32.8,27.3,30.26,SSE,155,0.0,6.3,80,0.00,,CLR,0.00,VWS V13.01,2013-04-23 09:57:00,
2013-04-23 03:02:00,32.8,27.6,30.26,SE,130,0.0,0.0,81,0.00,,CLR,0.00,VWS V13.01,2013-04-23 10:02:00,
2013-04-23 03:07:00,32.8,27.3,30.26,SE,140,0.0,0.0,80,0.00,,CLR,0.00,VWS V13.01,2013-04-23 10:07:00,
2013-04-23 03:12:00,32.6,27.1,30.26,ESE,110,0.0,0.0,80,0.00,,CLR,0.00,VWS V13.01,2013-04-23 10:12:00,
2013-04-23 03:17:00,32.4,27.0,30.26,ESE,122,0.0,4.5,80,0.00,,CLR,0.00,VWS V13.01,2013-04-23 10:17:00,
2013-04-23 03:22:00,32.4,27.3,30.26,East,96,0.0,0.0,81,0.00,,CLR,0.00,VWS V13.01,2013-04-23 10:22:00,
2013-04-23 03:28:00,32.4,27.3,30.26,South,171,0.0,0.0,81,0.00,,CLR,0.00,VWS V13.01,2013-04-23 10:28:00,
2013-04-23 03:33:00,32.4,27.3,30.26,ESE,119,0.0,7.2,81,0.00,,CLR,0.00,VWS V13.01,2013-04-23 10:33:00,
2013-04-23 03:38:00,32.4,27.3,30.26,SSE,164,0.0,7.2,81,0.00,,CLR,0.00,VWS V13.01,2013-04-23 10:38:00,
2013-04-23 03:43:00,32.2,27.1,30.26,ESE,110,0.0,0.0,81,0.00,,CLR,0.00,VWS V13.01,2013-04-23 10:43:00,
2013-04-23 03:48:00,32.2,27.1,30.26,ESE,114,0.0,0.0,81,0.00,,CLR,0.00,VWS V13.01,2013-04-23 10:48:00,
2013-04-23 03:53:00,32.2,27.1,30.26,SE,125,0.0,0.0,81,0.00,,CLR,0.00,VWS V13.01,2013-04-23 10:53:00,
2013-04-23 03:58:00,32.1,26.9,30.26,SE,127,0.0,0.0,81,0.00,,CLR,0.00,VWS V13.01,2013-04-23 10:58:00,
2013-04-23 04:03:00,31.9,26.7,30.26,South,173,0.0,0.0,81,0.00,,CLR,0.00,VWS V13.01,2013-04-23 11:03:00,
2013-04-23 04:09:00,31.9,26.7,30.26,ESE,115,0.0,0.0,81,0.00,,CLR,0.00,VWS V13.01,2013-04-23 11:09:00,
2013-04-23 04:14:00,31.7,26.6,30.26,SE,146,0.0,0.0,81,0.00,,CLR,0.00,VWS V13.01,2013-04-23 11:14:00,
2013-04-23 04:19:00,31.7,26.6,30.26,South,179,0.0,4.5,81,0.00,,CLR,0.00,VWS V13.01,2013-04-23 11:19:00,
2013-04-23 04:24:00,31.9,27.0,30.26,South,176,0.0,0.0,82,0.00,,CLR,0.00,VWS V13.01,2013-04-23 11:24:00,
2013-04-23 04:29:00,32.1,27.2,30.26,South,171,0.0,7.2,82,0.00,,CLR,0.00,VWS V13.01,2013-04-23 11:29:00,
2013-04-23 04:34:00,32.2,27.4,30.26,ESE,107,0.0,7.2,82,0.00,,CLR,0.00,VWS V13.01,2013-04-23 11:34:00,
2013-04-23 04:39:00,32.2,27.4,30.26,East,97,0.0,7.2,82,0.00,,CLR,0.00,VWS V13.01,2013-04-23 11:39:00,
2013-04-23 04:44:00,32.2,27.4,30.26,SSW,203,0.0,9.8,82,0.00,,CLR,0.00,VWS V13.01,2013-04-23 11:44:00,
2013-04-23 04:50:00,32.2,27.4,30.26,SE,144,0.0,9.8,82,0.00,,CLR,0.00,VWS V13.01,2013-04-23 11:50:00,
2013-04-23 04:55:00,32.4,27.6,30.26,SE,125,0.0,9.8,82,0.00,,CLR,0.00,VWS V13.01,2013-04-23 11:55:00,
2013-04-23 05:00:00,32.4,27.6,30.26,South,171,0.0,9.8,82,0.00,,CLR,0.00,VWS V13.01,2013-04-23 12:00:00,
2013-04-23 05:05:00,32.4,27.6,30.26,SE,131,0.0,0.0,82,0.00,,CLR,0.00,VWS V13.01,2013-04-23 12:05:00,
2013-04-23 05:10:00,32.4,27.6,30.26,SW,222,0.0,4.5,82,0.00,,CLR,0.00,VWS V13.01,2013-04-23 12:10:00,
2013-04-23 05:15:00,32.4,27.6,30.26,SSE,163,0.0,7.2,82,0.00,,CLR,0.00,VWS V13.01,2013-04-23 12:15:00,
2013-04-23 05:21:00,32.4,27.6,30.23,SSE,148,0.0,0.0,82,0.00,,CLR,0.00,VWS V13.01,2013-04-23 12:21:00,
2013-04-23 05:26:00,32.4,27.6,30.23,SSE,159,0.0,0.0,82,0.00,,CLR,0.00,VWS V13.01,2013-04-23 12:26:00,
2013-04-23 05:31:00,32.4,27.6,30.23,SSE,161,0.0,0.0,82,0.00,,CLR,0.00,VWS V13.01,2013-04-23 12:31:00,
2013-04-23 05:36:00,32.4,27.3,30.23,South,172,0.0,10.7,81,0.00,,CLR,0.00,VWS V13.01,2013-04-23 12:36:00,
2013-04-23 05:41:00,32.4,27.3,30.23,South,175,6.3,6.3,81,0.00,,CLR,0.00,VWS V13.01,2013-04-23 12:41:00,
2013-04-23 05:46:00,32.4,27.3,30.23,SE,138,0.0,6.3,81,0.00,,CLR,0.00,VWS V13.01,2013-04-23 12:46:00,
2013-04-23 05:51:00,32.4,27.3,30.23,SSW,194,0.0,6.3,81,0.00,,CLR,0.00,VWS V13.01,2013-04-23 12:51:00,
2013-04-23 05:56:00,32.2,27.1,30.23,South,180,0.0,6.3,81,0.00,,CLR,0.00,VWS V13.01,2013-04-23 12:56:00,
2013-04-23 06:02:00,32.2,27.1,30.23,SE,142,0.0,0.0,81,0.00,,CLR,0.00,VWS V13.01,2013-04-23 13:02:00,
2013-04-23 06:07:00,32.1,26.9,30.23,SSE,159,0.0,0.0,81,0.00,,CLR,0.00,VWS V13.01,2013-04-23 13:07:00,
2013-04-23 06:12:00,32.1,26.9,30.23,SE,141,0.0,0.0,81,0.00,,CLR,0.00,VWS V13.01,2013-04-23 13:12:00,
2013-04-23 06:17:00,32.1,27.2,30.23,SSE,163,0.0,0.0,82,0.00,,CLR,0.00,VWS V13.01,2013-04-23 13:17:00,
2013-04-23 06:22:00,32.2,27.4,30.23,SE,127,0.0,5.4,82,0.00,,CLR,0.00,VWS V13.01,2013-04-23 13:22:00,
2013-04-23 06:27:00,32.4,27.3,30.23,South,189,0.0,7.2,81,0.00,,CLR,0.00,VWS V13.01,2013-04-23 13:27:00,
2013-04-23 06:32:00,32.4,27.3,30.23,SSE,163,0.0,7.2,81,0.00,,CLR,0.00,VWS V13.01,2013-04-23 13:32:00,
2013-04-23 06:37:00,32.8,27.6,30.23,SSE,163,0.0,8.9,81,0.00,,CLR,0.00,VWS V13.01,2013-04-23 13:37:00,
2013-04-23 06:42:00,33.0,27.8,30.23,South,171,0.0,4.5,81,0.00,,CLR,0.00,VWS V13.01,2013-04-23 13:42:00,
2013-04-23 06:48:00,33.0,27.8,30.23,South,174,0.0,4.5,81,0.00,,CLR,0.00,VWS V13.01,2013-04-23 13:48:00,
2013-04-23 06:53:00,33.1,27.6,30.23,SE,143,0.0,6.3,80,0.00,,CLR,0.00,VWS V13.01,2013-04-23 13:53:00,
2013-04-23 06:58:00,33.5,28.0,30.23,South,175,0.0,6.3,80,0.00,,CLR,0.00,VWS V13.01,2013-04-23 13:58:00,
2013-04-23 07:03:00,33.5,28.0,30.23,SSE,157,0.0,0.0,80,0.00,,CLR,0.00,VWS V13.01,2013-04-23 14:03:00,
2013-04-23 07:08:00,33.7,27.9,30.23,South,172,0.0,0.0,79,0.00,,CLR,0.00,VWS V13.01,2013-04-23 14:08:00,
2013-04-23 07:13:00,33.8,28.0,30.23,SSE,158,0.0,7.2,79,0.00,,CLR,0.00,VWS V13.01,2013-04-23 14:13:00,
2013-04-23 07:18:00,34.0,27.9,30.23,South,173,0.0,7.2,78,0.00,,CLR,0.00,VWS V13.01,2013-04-23 14:18:00,
2013-04-23 07:23:00,34.0,27.9,30.23,South,182,0.0,0.0,78,0.00,,CLR,0.00,VWS V13.01,2013-04-23 14:23:00,
2013-04-23 07:29:00,34.4,27.3,30.23,South,186,0.0,7.2,75,0.00,,CLR,0.00,VWS V13.01,2013-04-23 14:29:00,
2013-04-23 07:34:00,34.6,26.8,30.23,SSE,153,0.0,7.2,73,0.00,,CLR,0.00,VWS V13.01,2013-04-23 14:34:00,
2013-04-23 07:39:00,34.9,26.5,30.23,SSE,160,0.0,8.9,71,0.00,,CLR,0.00,VWS V13.01,2013-04-23 14:39:00,
2013-04-23 07:44:00,35.3,26.5,30.23,SSE,151,5.4,7.2,70,0.00,,CLR,0.00,VWS V13.01,2013-04-23 14:44:00,
2013-04-23 07:49:00,35.5,26.3,30.23,SSE,152,0.0,8.1,69,0.00,,CLR,0.00,VWS V13.01,2013-04-23 14:49:00,
2013-04-23 07:54:00,35.8,26.3,30.23,South,178,0.0,8.1,68,0.00,,CLR,0.00,VWS V13.01,2013-04-23 14:54:00,
2013-04-23 07:59:00,36.0,26.5,30.23,South,185,5.4,8.1,68,0.00,,CLR,0.00,VWS V13.01,2013-04-23 14:59:00,
2013-04-23 08:04:00,36.0,26.5,30.23,SSE,164,0.0,8.9,68,0.00,,CLR,0.00,VWS V13.01,2013-04-23 15:04:00,
2013-04-23 08:10:00,36.2,26.6,30.23,SSE,157,0.0,8.9,68,0.00,,CLR,0.00,VWS V13.01,2013-04-23 15:10:00,
2013-04-23 08:15:00,36.3,26.8,30.23,South,187,0.0,8.9,68,0.00,,CLR,0.00,VWS V13.01,2013-04-23 15:15:00,
2013-04-23 08:20:00,36.5,27.0,30.23,South,169,0.0,8.9,68,0.00,,CLR,0.00,VWS V13.01,2013-04-23 15:20:00,
2013-04-23 08:25:00,36.7,26.8,30.23,SSW,192,0.0,6.3,67,0.00,,CLR,0.00,VWS V13.01,2013-04-23 15:25:00,
2013-04-23 08:30:00,37.1,27.1,30.23,SSE,155,0.0,6.3,67,0.00,,CLR,0.00,VWS V13.01,2013-04-23 15:30:00,
2013-04-23 08:35:00,37.2,27.3,30.23,SSW,192,0.0,8.1,67,0.00,,CLR,0.00,VWS V13.01,2013-04-23 15:35:00,
2013-04-23 08:40:00,37.4,27.5,30.23,ESE,115,0.0,0.0,67,0.00,,CLR,0.00,VWS V13.01,2013-04-23 15:40:00,
2013-04-23 08:45:00,37.8,27.8,30.23,SSW,203,0.0,5.4,67,0.00,,CLR,0.00,VWS V13.01,2013-04-23 15:45:00,
2013-04-23 08:50:00,38.0,28.0,30.23,South,175,5.4,6.3,67,0.00,,CLR,0.00,VWS V13.01,2013-04-23 15:50:00,
2013-04-23 08:56:00,38.1,28.2,30.23,South,176,0.0,6.3,67,0.00,,CLR,0.00,VWS V13.01,2013-04-23 15:56:00,
2013-04-23 09:01:00,38.5,28.5,30.23,South,189,0.0,0.0,67,0.00,,CLR,0.00,VWS V13.01,2013-04-23 16:01:00,
2013-04-23 09:06:00,38.8,28.5,30.23,SSE,156,0.0,0.0,66,0.00,,CLR,0.00,VWS V13.01,2013-04-23 16:06:00,
2013-04-23 09:11:00,39.0,28.3,30.23,ESE,123,0.0,0.0,65,0.00,,CLR,0.00,VWS V13.01,2013-04-23 16:11:00,
2013-04-23 09:16:00,39.4,28.6,30.23,South,170,0.0,0.0,65,0.00,,CLR,0.00,VWS V13.01,2013-04-23 16:16:00,
2013-04-23 09:21:00,39.6,28.4,30.23,South,187,0.0,0.0,64,0.00,,CLR,0.00,VWS V13.01,2013-04-23 16:21:00,
2013-04-23 09:26:00,39.9,28.4,30.23,SE,133,0.0,0.0,63,0.00,,CLR,0.00,VWS V13.01,2013-04-23 16:26:00,
2013-04-23 09:31:00,40.1,27.7,30.23,SSW,203,0.0,6.3,61,0.00,,CLR,0.00,VWS V13.01,2013-04-23 16:31:00,
2013-04-23 09:37:00,40.1,27.7,30.23,SSW,213,0.0,6.3,61,0.00,,CLR,0.00,VWS V13.01,2013-04-23 16:37:00,
2013-04-23 09:42:00,40.3,27.9,30.23,SSW,204,0.0,0.0,61,0.00,,CLR,0.00,VWS V13.01,2013-04-23 16:42:00,
2013-04-23 09:47:00,40.8,28.4,30.23,SSW,208,0.0,0.0,61,0.00,,CLR,0.00,VWS V13.01,2013-04-23 16:47:00,
2013-04-23 09:52:00,41.2,28.3,30.23,South,176,0.0,0.0,60,0.00,,CLR,0.00,VWS V13.01,2013-04-23 16:52:00,
2013-04-23 09:57:00,41.7,28.9,30.23,ESE,107,0.0,0.0,60,0.00,,CLR,0.00,VWS V13.01,2013-04-23 16:57:00,
2013-04-23 10:02:00,42.4,29.1,30.23,SSE,164,0.0,5.4,59,0.00,,CLR,0.00,VWS V13.01,2013-04-23 17:02:00,
2013-04-23 10:07:00,42.9,29.6,30.23,SW,219,0.0,5.4,59,0.00,,CLR,0.00,VWS V13.01,2013-04-23 17:07:00,
2013-04-23 10:12:00,43.1,29.4,30.23,SSW,207,4.5,6.3,58,0.00,,CLR,0.00,VWS V13.01,2013-04-23 17:12:00,
2013-04-23 10:17:00,43.3,29.5,30.23,SW,220,0.0,6.3,58,0.00,,CLR,0.00,VWS V13.01,2013-04-23 17:17:00,
2013-04-23 10:23:00,43.7,29.9,30.23,SSE,152,0.0,7.2,58,0.00,,CLR,0.00,VWS V13.01,2013-04-23 17:23:00,
2013-04-23 10:28:00,44.2,30.4,30.23,SSE,166,0.0,8.1,58,0.00,,CLR,0.00,VWS V13.01,2013-04-23 17:28:00,
2013-04-23 10:33:00,44.5,30.7,30.23,ESE,109,0.0,8.1,58,0.00,,CLR,0.00,VWS V13.01,2013-04-23 17:33:00,
2013-04-23 10:38:00,44.9,30.6,30.23,East,100,0.0,8.1,57,0.00,,CLR,0.00,VWS V13.01,2013-04-23 17:38:00,
2013-04-23 10:43:00,45.3,30.9,30.23,ESE,123,0.0,10.7,57,0.00,,CLR,0.00,VWS V13.01,2013-04-23 17:43:00,
2013-04-23 10:48:00,45.6,31.3,30.23,SSE,166,0.0,10.7,57,0.00,,CLR,0.00,VWS V13.01,2013-04-23 17:48:00,
2013-04-23 10:53:00,45.8,31.0,30.23,SSE,163,0.0,10.7,56,0.00,,CLR,0.00,VWS V13.01,2013-04-23 17:53:00,
2013-04-23 10:58:00,45.8,31.0,30.23,ENE,73,4.5,12.5,56,0.00,,CLR,0.00,VWS V13.01,2013-04-23 17:58:00,
2013-04-23 11:03:00,46.0,31.2,30.23,South,191,0.0,10.7,56,0.00,,CLR,0.00,VWS V13.01,2013-04-23 18:03:00,
2013-04-23 11:09:00,46.0,31.2,30.23,East,99,0.0,10.7,56,0.00,,CLR,0.00,VWS V13.01,2013-04-23 18:09:00,
2013-04-23 11:14:00,46.3,31.5,30.23,South,171,0.0,10.7,56,0.00,,CLR,0.00,VWS V13.01,2013-04-23 18:14:00,
2013-04-23 11:19:00,46.7,31.8,30.23,South,182,5.4,10.7,56,0.00,,CLR,0.00,VWS V13.01,2013-04-23 18:19:00,
2013-04-23 11:24:00,46.9,31.6,30.23,ESE,103,0.0,0.0,55,0.00,,CLR,0.00,VWS V13.01,2013-04-23 18:24:00,
2013-04-23 11:29:00,47.2,31.9,30.23,ENE,71,7.2,9.8,55,0.00,,CLR,0.00,VWS V13.01,2013-04-23 18:29:00,
2013-04-23 11:34:00,47.4,32.1,30.23,East,97,0.0,10.7,55,0.00,,CLR,0.00,VWS V13.01,2013-04-23 18:34:00,
2013-04-23 11:39:00,47.8,32.4,30.23,SSW,210,0.0,10.7,55,0.00,,CLR,0.00,VWS V13.01,2013-04-23 18:39:00,
2013-04-23 11:44:00,48.3,32.9,30.23,ESE,110,0.0,9.8,55,0.00,,CLR,0.00,VWS V13.01,2013-04-23 18:44:00,
2013-04-23 11:50:00,48.6,33.2,30.23,ENE,58,0.0,9.8,55,0.00,,CLR,0.00,VWS V13.01,2013-04-23 18:50:00,
2013-04-23 11:55:00,48.8,33.4,30.23,East,84,0.0,9.8,55,0.00,,CLR,0.00,VWS V13.01,2013-04-23 18:55:00,
2013-04-23 12:00:00,49.5,33.6,30.23,ENE,61,0.0,0.0,54,0.00,,CLR,0.00,VWS V13.01,2013-04-23 19:00:00,
2013-04-23 12:05:00,49.5,33.6,30.23,ENE,67,0.0,12.5,54,0.00,,CLR,0.00,VWS V13.01,2013-04-23 19:05:00,
2013-04-23 12:10:00,49.7,33.8,30.23,NE,47,7.2,12.5,54,0.00,,CLR,0.00,VWS V13.01,2013-04-23 19:10:00,
2013-04-23 12:15:00,49.5,33.6,30.23,SSE,164,0.0,12.5,54,0.00,,CLR,0.00,VWS V13.01,2013-04-23 19:15:00,
2013-04-23 12:20:00,49.9,33.9,30.20,ESE,112,0.0,0.0,54,0.00,,CLR,0.00,VWS V13.01,2013-04-23 19:20:00,
2013-04-23 12:26:00,50.1,34.1,30.20,SSW,213,0.0,0.0,54,0.00,,CLR,0.00,VWS V13.01,2013-04-23 19:26:00,
2013-04-23 12:31:00,49.9,33.9,30.20,NE,47,0.0,0.0,54,0.00,,CLR,0.00,VWS V13.01,2013-04-23 19:31:00,
2013-04-23 12:36:00,50.6,34.6,30.20,East,98,0.0,9.8,54,0.00,,CLR,0.00,VWS V13.01,2013-04-23 19:36:00,
2013-04-23 12:41:00,51.3,35.2,30.20,East,84,0.0,0.0,54,0.00,,CLR,0.00,VWS V13.01,2013-04-23 19:41:00,
2013-04-23 12:46:00,51.5,35.4,30.20,ESE,106,7.2,8.1,54,0.00,,CLR,0.00,VWS V13.01,2013-04-23 19:46:00,
2013-04-23 12:51:00,51.8,35.8,30.20,ENE,57,0.0,8.1,54,0.00,,CLR,0.00,VWS V13.01,2013-04-23 19:51:00,
2013-04-23 12:56:00,52.0,35.9,30.20,ENE,65,0.0,8.1,54,0.00,,CLR,0.00,VWS V13.01,2013-04-23 19:56:00,
2013-04-23 13:01:00,52.0,35.9,30.20,North,2,0.0,0.0,54,0.00,,CLR,0.00,VWS V13.01,2013-04-23 20:01:00,
2013-04-23 13:07:00,51.7,35.6,30.20,NW,304,0.0,0.0,54,0.00,,CLR,0.00,VWS V13.01,2013-04-23 20:07:00,
2013-04-23 13:12:00,51.5,35.4,30.20,WNW,303,0.0,0.0,54,0.00,,CLR,0.00,VWS V13.01,2013-04-23 20:12:00,
2013-04-23 13:17:00,51.7,35.6,30.20,WNW,303,0.0,0.0,54,0.00,,CLR,0.00,VWS V13.01,2013-04-23 20:17:00,
2013-04-23 13:22:00,52.4,36.2,30.20,East,79,0.0,11.6,54,0.00,,CLR,0.00,VWS V13.01,2013-04-23 20:22:00,
2013-04-23 13:27:00,52.9,36.3,30.20,East,96,0.0,11.6,53,0.00,,CLR,0.00,VWS V13.01,2013-04-23 20:27:00,
2013-04-23 13:32:00,52.7,36.1,30.20,NE,52,0.0,11.6,53,0.00,,CLR,0.00,VWS V13.01,2013-04-23 20:32:00,
2013-04-23 13:37:00,52.6,35.9,30.20,East,85,0.0,11.6,53,0.00,,CLR,0.00,VWS V13.01,2013-04-23 20:37:00,
2013-04-23 13:42:00,52.6,35.9,30.20,SSE,159,0.0,0.0,53,0.00,,CLR,0.00,VWS V13.01,2013-04-23 20:42:00,
2013-04-23 13:47:00,52.6,35.0,30.20,ESE,107,8.1,10.7,51,0.00,,CLR,0.00,VWS V13.01,2013-04-23 20:47:00,
2013-04-23 13:53:00,52.9,36.3,30.17,East,98,8.1,11.6,53,0.00,,CLR,0.00,VWS V13.01,2013-04-23 20:53:00,
2013-04-23 13:58:00,53.5,35.8,30.17,East,91,0.0,11.6,51,0.00,,CLR,0.00,VWS V13.01,2013-04-23 20:58:00,
2013-04-23 14:03:00,54.2,36.5,30.17,ENE,60,8.1,8.1,51,0.00,,CLR,0.00,VWS V13.01,2013-04-23 21:03:00,
2013-04-23 14:08:00,54.3,36.1,30.17,ENE,64,0.0,12.5,50,0.00,,CLR,0.00,VWS V13.01,2013-04-23 21:08:00,
2013-04-23 14:13:00,54.0,36.3,30.17,NNE,19,0.0,12.5,51,0.00,,CLR,0.00,VWS V13.01,2013-04-23 21:13:00,
2013-04-23 14:18:00,53.5,35.8,30.17,NNE,19,0.0,12.5,51,0.00,,CLR,0.00,VWS V13.01,2013-04-23 21:18:00,
2013-04-23 14:23:00,52.9,35.3,30.17,NNE,19,0.0,0.0,51,0.00,,CLR,0.00,VWS V13.01,2013-04-23 21:23:00,
2013-04-23 14:28:00,53.5,35.8,30.17,NNE,16,0.0,0.0,51,0.00,,CLR,0.00,VWS V13.01,2013-04-23 21:28:00,
2013-04-23 14:34:00,53.8,36.1,30.17,ESE,113,7.2,11.6,51,0.00,,CLR,0.00,VWS V13.01,2013-04-23 21:34:00,
2013-04-23 14:39:00,54.2,36.5,30.17,NNE,27,0.0,11.6,51,0.00,,CLR,0.00,VWS V13.01,2013-04-23 21:39:00,
2013-04-23 14:44:00,54.9,36.6,30.17,East,97,0.0,0.0,50,0.00,,CLR,0.00,VWS V13.01,2013-04-23 21:44:00,
2013-04-23 14:49:00,55.6,37.3,30.17,SSW,203,0.0,0.0,50,0.00,,CLR,0.00,VWS V13.01,2013-04-23 21:49:00,
2013-04-23 14:54:00,55.8,37.4,30.17,South,182,0.0,7.2,50,0.00,,CLR,0.00,VWS V13.01,2013-04-23 21:54:00,
2013-04-23 14:59:00,56.3,37.9,30.17,NE,54,0.0,7.2,50,0.00,,CLR,0.00,VWS V13.01,2013-04-23 21:59:00,
2013-04-23 15:04:00,56.7,38.2,30.17,ENE,59,0.0,9.8,50,0.00,,CLR,0.00,VWS V13.01,2013-04-23 22:04:00,
2013-04-23 15:09:00,56.5,36.5,30.17,WNW,285,10.7,10.7,47,0.00,,CLR,0.00,VWS V13.01,2013-04-23 22:09:00,
2013-04-23 15:14:00,55.8,36.4,30.17,ENE,69,10.7,13.4,48,0.00,,CLR,0.00,VWS V13.01,2013-04-23 22:14:00,
2013-04-23 15:20:00,55.8,36.4,30.17,NNE,26,0.0,13.4,48,0.00,,CLR,0.00,VWS V13.01,2013-04-23 22:20:00,
2013-04-23 15:25:00,56.3,36.3,30.17,North,3,0.0,0.0,47,0.00,,CLR,0.00,VWS V13.01,2013-04-23 22:25:00,
2013-04-23 15:30:00,56.8,36.8,30.17,WNW,285,8.1,10.7,47,0.00,,CLR,0.00,VWS V13.01,2013-04-23 22:30:00,
2013-04-23 15:35:00,56.7,36.7,30.14,WNW,300,5.4,12.5,47,0.00,,CLR,0.00,VWS V13.01,2013-04-23 22:35:00,
2013-04-23 15:40:00,56.3,36.3,30.14,West,265,8.9,8.9,47,0.00,,CLR,0.00,VWS V13.01,2013-04-23 22:40:00,
2013-04-23 15:45:00,56.1,36.2,30.14,WSW,250,0.0,12.5,47,0.00,,CLR,0.00,VWS V13.01,2013-04-23 22:45:00,
2013-04-23 15:50:00,56.3,36.3,30.14,SW,229,0.0,12.5,47,0.00,,CLR,0.00,VWS V13.01,2013-04-23 22:50:00,
2013-04-23 15:55:00,56.5,36.5,30.14,West,262,7.2,12.5,47,0.00,,CLR,0.00,VWS V13.01,2013-04-23 22:55:00,
2013-04-23 16:00:00,55.8,36.4,30.14,WNW,299,7.2,14.3,48,0.00,,CLR,0.00,VWS V13.01,2013-04-23 23:00:00,
2013-04-23 16:06:00,54.9,34.0,30.14,WSW,258,7.2,14.3,45,0.00,,CLR,0.00,VWS V13.01,2013-04-23 23:06:00,
2013-04-23 16:11:00,54.7,35.4,30.14,West,276,0.0,14.3,48,0.00,,CLR,0.00,VWS V13.01,2013-04-23 23:11:00,
2013-04-23 16:16:00,54.7,35.4,30.14,West,279,0.0,14.3,48,0.00,,CLR,0.00,VWS V13.01,2013-04-23 23:16:00,
2013-04-23 16:21:00,54.5,35.2,30.14,WNW,294,0.0,0.0,48,0.00,,CLR,0.00,VWS V13.01,2013-04-23 23:21:00,
2013-04-23 16:26:00,54.3,35.1,30.14,North,353,0.0,0.0,48,0.00,,CLR,0.00,VWS V13.01,2013-04-23 23:26:00,
2013-04-23 16:31:00,54.5,35.2,30.14,NNW,344,0.0,0.0,48,0.00,,CLR,0.00,VWS V13.01,2013-04-23 23:31:00,
2013-04-23 16:36:00,55.2,35.9,30.14,West,273,6.3,14.3,48,0.00,,CLR,0.00,VWS V13.01,2013-04-23 23:36:00,
2013-04-23 16:41:00,55.4,36.1,30.14,WNW,303,0.0,8.1,48,0.00,,CLR,0.00,VWS V13.01,2013-04-23 23:41:00,
2013-04-23 16:47:00,55.2,34.3,30.14,West,270,11.6,12.5,45,0.00,,CLR,0.00,VWS V13.01,2013-04-23 23:47:00,
2013-04-23 16:52:00,55.1,35.7,30.14,WNW,296,0.0,12.5,48,0.00,,CLR,0.00,VWS V13.01,2013-04-23 23:52:00,
2013-04-23 16:57:00,55.2,35.9,30.14,West,264,6.3,12.5,48,0.00,,CLR,0.00,VWS V13.01,2013-04-23 23:57:00,
2013-04-23 17:02:00,55.4,36.1,30.14,West,278,0.0,0.0,48,0.00,,CLR,0.00,VWS V13.01,2013-04-24 00:02:00,
2013-04-23 17:07:00,55.4,36.1,30.14,North,1,0.0,12.5,48,0.00,,CLR,0.00,VWS V13.01,2013-04-24 00:07:00,
2013-04-23 17:12:00,55.2,35.9,30.14,NNE,15,8.1,12.5,48,0.00,,CLR,0.00,VWS V13.01,2013-04-24 00:12:00,
2013-04-23 17:17:00,55.1,35.7,30.14,West,280,0.0,12.5,48,0.00,,CLR,0.00,VWS V13.01,2013-04-24 00:17:00,
2013-04-23 17:23:00,54.7,35.4,30.14,NNE,15,0.0,0.0,48,0.00,,CLR,0.00,VWS V13.01,2013-04-24 00:23:00,
2013-04-23 17:28:00,54.9,35.6,30.14,North,9,0.0,0.0,48,0.00,,CLR,0.00,VWS V13.01,2013-04-24 00:28:00,
2013-04-23 17:33:00,55.2,35.9,30.14,NNE,12,6.3,12.5,48,0.00,,CLR,0.00,VWS V13.01,2013-04-24 00:33:00,
2013-04-23 17:38:00,55.2,35.9,30.14,North,9,0.0,12.5,48,0.00,,CLR,0.00,VWS V13.01,2013-04-24 00:38:00,
2013-04-23 17:43:00,54.9,35.6,30.14,North,0,0.0,0.0,48,0.00,,CLR,0.00,VWS V13.01,2013-04-24 00:43:00,
2013-04-23 17:48:00,55.2,35.9,30.14,NW,316,0.0,0.0,48,0.00,,CLR,0.00,VWS V13.01,2013-04-24 00:48:00,
2013-04-23 17:53:00,55.2,35.9,30.14,NW,310,0.0,0.0,48,0.00,,CLR,0.00,VWS V13.01,2013-04-24 00:53:00,
2013-04-23 17:58:00,54.9,35.6,30.14,NW,310,0.0,0.0,48,0.00,,CLR,0.00,VWS V13.01,2013-04-24 00:58:00,
2013-04-23 18:04:00,54.7,35.4,30.14,NW,310,0.0,0.0,48,0.00,,CLR,0.00,VWS V13.01,2013-04-24 01:04:00,
2013-04-23 18:09:00,54.5,35.2,30.14,NW,313,0.0,0.0,48,0.00,,CLR,0.00,VWS V13.01,2013-04-24 01:09:00,
2013-04-23 18:14:00,54.5,35.2,30.14,NW,325,0.0,0.0,48,0.00,,CLR,0.00,VWS V13.01,2013-04-24 01:14:00,
2013-04-23 18:19:00,54.3,35.1,30.14,NW,325,0.0,0.0,48,0.00,,CLR,0.00,VWS V13.01,2013-04-24 01:19:00,
2013-04-23 18:24:00,54.2,34.9,30.14,WNW,297,0.0,0.0,48,0.00,,CLR,0.00,VWS V13.01,2013-04-24 01:24:00,
2013-04-23 18:29:00,54.0,34.8,30.14,WNW,297,0.0,0.0,48,0.00,,CLR,0.00,VWS V13.01,2013-04-24 01:29:00,
2013-04-23 18:34:00,53.6,34.4,30.14,WNW,297,0.0,0.0,48,0.00,,CLR,0.00,VWS V13.01,2013-04-24 01:34:00,
2013-04-23 18:40:00,53.5,34.3,30.14,NW,313,0.0,0.0,48,0.00,,CLR,0.00,VWS V13.01,2013-04-24 01:40:00,
2013-04-23 18:45:00,53.5,34.3,30.14,NW,314,0.0,0.0,48,0.00,,CLR,0.00,VWS V13.01,2013-04-24 01:45:00,
2013-04-23 18:50:00,53.3,34.1,30.14,NW,314,0.0,0.0,48,0.00,,CLR,0.00,VWS V13.01,2013-04-24 01:50:00,
2013-04-23 18:55:00,53.3,34.1,30.14,NW,314,0.0,0.0,48,0.00,,CLR,0.00,VWS V13.01,2013-04-24 01:55:00,
2013-04-23 19:00:00,53.1,33.9,30.14,NW,314,0.0,0.0,48,0.00,,CLR,0.00,VWS V13.01,2013-04-24 02:00:00,
2013-04-23 19:05:00,53.1,33.9,30.14,NW,314,0.0,0.0,48,0.00,,CLR,0.00,VWS V13.01,2013-04-24 02:05:00,
2013-04-23 19:10:00,52.9,33.8,30.14,NW,314,0.0,0.0,48,0.00,,CLR,0.00,VWS V13.01,2013-04-24 02:10:00,
2013-04-23 19:16:00,52.7,33.6,30.14,NW,314,0.0,0.0,48,0.00,,CLR,0.00,VWS V13.01,2013-04-24 02:16:00,
2013-04-23 19:21:00,52.6,33.5,30.14,NW,314,0.0,0.0,48,0.00,,CLR,0.00,VWS V13.01,2013-04-24 02:21:00,
2013-04-23 19:26:00,52.4,33.8,30.14,NW,314,0.0,0.0,49,0.00,,CLR,0.00,VWS V13.01,2013-04-24 02:26:00,
2013-04-23 19:31:00,52.2,33.6,30.14,NW,314,0.0,0.0,49,0.00,,CLR,0.00,VWS V13.01,2013-04-24 02:31:00,
2013-04-23 19:37:00,51.8,33.3,30.14,NW,314,0.0,0.0,49,0.00,,CLR,0.00,VWS V13.01,2013-04-24 02:37:00,
2013-04-23 19:42:00,51.3,32.8,30.14,NW,314,0.0,0.0,49,0.00,,CLR,0.00,VWS V13.01,2013-04-24 02:42:00,
2013-04-23 19:47:00,50.6,32.2,30.14,NW,314,0.0,0.0,49,0.00,,CLR,0.00,VWS V13.01,2013-04-24 02:47:00,
2013-04-23 19:52:00,49.9,31.5,30.14,NW,314,0.0,0.0,49,0.00,,CLR,0.00,VWS V13.01,2013-04-24 02:52:00,
2013-04-23 19:57:00,49.4,31.0,30.14,NW,314,0.0,0.0,49,0.00,,CLR,0.00,VWS V13.01,2013-04-24 02:57:00,
2013-04-23 20:02:00,48.5,30.2,30.14,NW,314,0.0,0.0,49,0.00,,CLR,0.00,VWS V13.01,2013-04-24 03:02:00,
2013-04-23 20:07:00,47.8,29.5,30.14,NW,314,0.0,0.0,49,0.00,,CLR,0.00,VWS V13.01,2013-04-24 03:07:00,
2013-04-23 20:13:00,47.0,29.4,30.14,NW,314,0.0,0.0,50,0.00,,CLR,0.00,VWS V13.01,2013-04-24 03:13:00,
2013-04-23 20:18:00,46.3,28.7,30.14,NW,314,0.0,0.0,50,0.00,,CLR,0.00,VWS V13.01,2013-04-24 03:18:00,
2013-04-23 20:23:00,45.6,29.0,30.14,NW,314,0.0,0.0,52,0.00,,CLR,0.00,VWS V13.01,2013-04-24 03:23:00,
2013-04-23 20:28:00,44.9,28.8,30.14,NW,314,0.0,0.0,53,0.00,,CLR,0.00,VWS V13.01,2013-04-24 03:28:00,
2013-04-23 20:33:00,44.4,28.3,30.14,NW,314,0.0,0.0,53,0.00,,CLR,0.00,VWS V13.01,2013-04-24 03:33:00,
2013-04-23 20:39:00,44.0,28.9,30.14,NW,314,0.0,0.0,55,0.00,,CLR,0.00,VWS V13.01,2013-04-24 03:39:00,
2013-04-23 20:44:00,43.7,28.6,30.14,NW,314,0.0,0.0,55,0.00,,CLR,0.00,VWS V13.01,2013-04-24 03:44:00,
2013-04-23 20:49:00,43.3,28.7,30.14,NW,314,0.0,0.0,56,0.00,,CLR,0.00,VWS V13.01,2013-04-24 03:49:00,
2013-04-23 20:54:00,42.8,28.2,30.14,NW,314,0.0,0.0,56,0.00,,CLR,0.00,VWS V13.01,2013-04-24 03:54:00,
2013-04-23 20:59:00,42.4,27.8,30.14,NW,314,0.0,0.0,56,0.00,,CLR,0.00,VWS V13.01,2013-04-24 03:59:00,
2013-04-23 21:01:00,42.4,27.8,30.14,NW,314,0.0,0.0,56,0.00,,CLR,0.00,VWS V13.01,2013-04-24 04:01:00,
2013-04-23 21:02:00,42.2,27.7,30.14,NW,314,0.0,0.0,56,0.00,,CLR,0.00,VWS V13.01,2013-04-24 04:02:00,
2013-04-23 21:07:00,41.9,27.8,30.14,NW,314,0.0,0.0,57,0.00,,CLR,0.00,VWS V13.01,2013-04-24 04:07:00,
2013-04-23 21:13:00,41.7,27.6,30.14,NW,314,0.0,0.0,57,0.00,,CLR,0.00,VWS V13.01,2013-04-24 04:13:00,
2013-04-23 21:18:00,41.7,27.6,30.14,NW,311,0.0,0.0,57,0.00,,CLR,0.00,VWS V13.01,2013-04-24 04:18:00,
2013-04-23 21:23:00,41.7,28.0,30.14,NNW,333,0.0,0.0,58,0.00,,CLR,0.00,VWS V13.01,2013-04-24 04:23:00,
2013-04-23 21:28:00,41.9,28.2,30.14,East,90,0.0,0.0,58,0.00,,CLR,0.00,VWS V13.01,2013-04-24 04:28:00,
2013-04-23 21:33:00,41.9,28.6,30.17,East,90,0.0,0.0,59,0.00,,CLR,0.00,VWS V13.01,2013-04-24 04:33:00,
2013-04-23 21:38:00,41.9,28.6,30.17,East,96,0.0,7.2,59,0.00,,CLR,0.00,VWS V13.01,2013-04-24 04:38:00,
2013-04-23 21:43:00,41.9,29.0,30.17,East,96,0.0,0.0,60,0.00,,CLR,0.00,VWS V13.01,2013-04-24 04:43:00,
2013-04-23 21:48:00,41.7,29.2,30.17,East,95,0.0,0.0,61,0.00,,CLR,0.00,VWS V13.01,2013-04-24 04:48:00,
2013-04-23 21:54:00,41.5,29.1,30.17,ESE,121,0.0,0.0,61,0.00,,CLR,0.00,VWS V13.01,2013-04-24 04:54:00,
2013-04-23 21:59:00,41.5,29.1,30.17,ESE,121,0.0,0.0,61,0.00,,CLR,0.00,VWS V13.01,2013-04-24 04:59:00,
2013-04-23 22:04:00,41.3,29.3,30.17,ESE,117,0.0,7.2,62,0.00,,CLR,0.00,VWS V13.01,2013-04-24 05:04:00,
2013-04-23 22:09:00,41.2,29.1,30.17,ESE,117,0.0,7.2,62,0.00,,CLR,0.00,VWS V13.01,2013-04-24 05:09:00,
2013-04-23 22:14:00,41.2,29.1,30.17,SSE,152,0.0,9.8,62,0.00,,CLR,0.00,VWS V13.01,2013-04-24 05:14:00,
2013-04-23 22:19:00,41.0,29.0,30.17,SSE,152,0.0,9.8,62,0.00,,CLR,0.00,VWS V13.01,2013-04-24 05:19:00,
2013-04-23 22:24:00,40.8,28.8,30.17,SSE,147,0.0,0.0,62,0.00,,CLR,0.00,VWS V13.01,2013-04-24 05:24:00,
2013-04-23 22:29:00,40.5,28.5,30.17,SSE,150,0.0,0.0,62,0.00,,CLR,0.00,VWS V13.01,2013-04-24 05:29:00,
2013-04-23 22:35:00,40.3,28.7,30.17,SE,144,0.0,0.0,63,0.00,,CLR,0.00,VWS V13.01,2013-04-24 05:35:00,
2013-04-23 22:40:00,40.1,28.9,30.17,South,170,0.0,0.0,64,0.00,,CLR,0.00,VWS V13.01,2013-04-24 05:40:00,
2013-04-23 22:45:00,39.9,29.5,30.17,South,183,0.0,0.0,66,0.00,,CLR,0.00,VWS V13.01,2013-04-24 05:45:00,
2013-04-23 22:50:00,39.7,29.3,30.17,SSE,159,0.0,0.0,66,0.00,,CLR,0.00,VWS V13.01,2013-04-24 05:50:00,
2013-04-23 22:55:00,39.6,29.1,30.17,SE,145,0.0,0.0,66,0.00,,CLR,0.00,VWS V13.01,2013-04-24 05:55:00,
2013-04-23 23:00:00,39.4,29.4,30.17,SE,145,0.0,0.0,67,0.00,,CLR,0.00,VWS V13.01,2013-04-24 06:00:00,
2013-04-23 23:05:00,39.0,29.0,30.17,SE,143,0.0,0.0,67,0.00,,CLR,0.00,VWS V13.01,2013-04-24 06:05:00,
2013-04-23 23:10:00,38.8,28.8,30.17,ESE,107,0.0,0.0,67,0.00,,CLR,0.00,VWS V13.01,2013-04-24 06:10:00,
2013-04-23 23:16:00,38.7,28.7,30.17,SSE,163,0.0,0.0,67,0.00,,CLR,0.00,VWS V13.01,2013-04-24 06:16:00,
2013-04-23 23:21:00,38.5,28.5,30.17,SE,140,0.0,0.0,67,0.00,,CLR,0.00,VWS V13.01,2013-04-24 06:21:00,
2013-04-23 23:26:00,38.5,28.5,30.17,SSE,153,0.0,0.0,67,0.00,,CLR,0.00,VWS V13.01,2013-04-24 06:26:00,
2013-04-23 23:31:00,38.3,28.7,30.17,SE,136,0.0,0.0,68,0.00,,CLR,0.00,VWS V13.01,2013-04-24 06:31:00,
2013-04-23 23:36:00,38.1,28.5,30.17,SE,136,0.0,0.0,68,0.00,,CLR,0.00,VWS V13.01,2013-04-24 06:36:00,
2013-04-23 23:41:00,38.0,28.4,30.17,SE,136,0.0,0.0,68,0.00,,CLR,0.00,VWS V13.01,2013-04-24 06:41:00,
2013-04-23 23:46:00,37.8,28.2,30.17,SE,140,0.0,0.0,68,0.00,,CLR,0.00,VWS V13.01,2013-04-24 06:46:00,
2013-04-23 23:52:00,37.6,28.4,30.17,SE,143,0.0,0.0,69,0.00,,CLR,0.00,VWS V13.01,2013-04-24 06:52:00,
2013-04-23 23:57:00,37.6,28.4,30.17,SSE,166,0.0,0.0,69,0.00,,CLR,0.00,VWS V13.01,2013-04-24 06:57:00,